EDT,Max TemperatureF,Mean TemperatureF,Min TemperatureF,Max Dew PointF,MeanDew PointF,Min DewpointF,Max Humidity, Mean Humidity, Min Humidity, Max Sea Level PressureIn, Mean Sea Level PressureIn, Min Sea Level PressureIn, Max VisibilityMiles, Mean VisibilityMiles, Min VisibilityMiles, Max Wind SpeedMPH, Mean Wind SpeedMPH, Max Gust SpeedMPH,PrecipitationIn, CloudCover, Events, WindDirDegrees
2012-3-1,41,38,34,34,33,31,98,84,68,29.86,29.72,29.53,10,8,2,15,9,21,0.00,8,Rain-Snow,250
2012-3-2,47,40,34,46,35,32,97,86,67,29.85,29.56,29.09,10,7,2,21,7,31,0.00,7,Rain,119
2012-3-3,36,33,30,32,27,21,90,76,64,29.69,29.50,29.20,10,9,1,33,23,45,0.00,8,Snow,253
2012-3-4,33,28,22,23,21,19,89,75,60,29.83,29.76,29.71,10,9,2,12,7,,0.00,7,Snow,293
2012-3-5,29,24,20,22,16,9,86,71,54,30.34,30.14,29.88,10,8,2,14,6,21,0.00,6,Snow,320
2012-3-6,56,42,28,34,26,19,74,58,40,30.35,30.18,30.00,10,10,10,21,11,29,0.00,3,,173
2012-3-7,65,56,47,42,33,26,45,42,36,30.08,30.01,29.91,10,10,10,31,15,39,0.00,3,,205
2012-3-8,44,37,30,41,30,21,93,74,56,30.10,29.99,29.82,10,9,4,22,14,30,0.00,5,,272
2012-3-9,35,32,27,27,19,11,80,59,38,30.46,30.24,30.07,10,9,4,23,12,32,0.00,6,Snow,286
2012-3-10,48,33,18,22,16,10,84,55,33,30.52,30.41,30.20,10,10,10,20,6,29,0.00,1,,181
2012-3-11,65,52,39,32,25,22,53,38,20,30.30,30.24,30.17,10,10,10,16,8,20,0.00,0,,213
2012-3-12,61,53,45,54,45,31,97,76,42,30.18,30.00,29.76,10,8,4,18,9,25,0.00,5,Rain,167
2012-3-13,61,54,46,50,41,27,100,70,30,30.05,29.95,29.85,10,8,5,21,7,29,0.00,2,Rain,246
2012-3-14,77,56,35,48,33,23,73,47,30,30.13,30.08,29.99,10,10,10,14,5,21,0.00,0,,169
2012-3-15,76,66,55,63,55,50,87,71,56,30.02,30.00,29.95,10,9,2,12,6,18,0.00,1,Rain,187
2012-3-16,75,62,49,65,56,49,100,87,53,30.12,30.07,30.00,10,5,0,12,3,16,0.00,4,Fog,192
2012-3-17,76,64,51,58,54,49,99,77,39,30.17,30.14,30.10,10,6,1,15,6,21,0.00,0,,167
2012-3-18,71,60,50,57,54,49,97,80,56,30.11,30.08,30.04,10,8,2,9,6,,0.00,1,,175
2012-3-19,78,64,51,59,55,50,99,74,47,30.11,30.07,30.03,10,7,0,13,5,18,0.00,2,Fog,152
2012-3-20,81,68,55,59,54,51,96,68,35,30.16,30.11,30.07,10,9,3,10,7,,0.00,0,,153
2012-3-21,84,70,56,56,52,49,85,57,30,30.20,30.15,30.09,10,10,7,10,6,18,0.00,0,,150
2012-3-22,82,68,55,55,52,50,83,60,34,30.15,30.13,30.05,10,10,7,9,4,,0.00,0,,133
2012-3-23,69,62,55,58,55,53,98,82,58,30.10,30.03,29.91,10,6,2,7,2,,0.00,2,Rain,105
2012-3-24,56,54,52,55,53,50,97,95,88,29.88,29.83,29.81,10,4,1,9,4,,0.00,8,Rain,92
2012-3-25,68,57,47,52,49,47,99,82,47,29.97,29.92,29.87,10,6,0,14,5,23,0.00,4,Rain,332
2012-3-26,44,38,32,32,24,16,76,60,35,30.39,30.28,30.10,10,10,10,13,8,22,0.00,2,,13
2012-3-27,52,39,26,26,20,15,70,54,30,30.38,30.28,30.01,10,10,10,21,8,26,0.00,2,,133
2012-3-28,61,56,52,48,40,31,72,52,41,29.82,29.73,29.67,10,10,10,25,14,34,0.00,3,,257
2012-3-29,41,39,37,30,28,27,70,66,62,30.15,30.07,29.99,10,10,10,12,7,17,0.00,8,,354
2012-3-30,38,34,30,35,30,26,96,86,75,30.09,29.95,29.78,10,8,1,17,8,25,0.00,5,Rain-Snow,101
2012-3-31,41,36,32,33,32,31,98,87,67,30.00,29.96,29.89,10,8,3,7,4,,0.00,8,,22